Zurück zum Katalog

THOR ABLESTAR DEB

AktivLEO
NORAD 653·DEBRIS·🇺🇸 United States

Gestartet Jun 29, 1961 von Cape Canaveral Space Force Station

Loading…

Nächste Überflüge (nächste 24 Stunden)

TLE

AktuellSource: Space-Track

Epoche: Sep 14, 2026, 14:25 UTC

1 00653U 61015HE  26257.60085273  .00000858  00000-0  95418-3 0  9991
2 00653  67.4509 323.5035 0160797 266.3474 244.8476 13.70528121230134

Verfolge THOR ABLESTAR DEB in Echtzeit mit AllMySat

Download on the App Store